Alturas, CA

12:01 AM PST on December 08, 2019 (GMT -0800)
Alturas Municipal

Weather History for KAAT - October, 2019

Change the Weather History Date:

Wednesday, October 9, 2019

  Actual Average Record
Temperature  
Mean Temperature 38 °F 49 °F  
Max Temperature 50 °F 69 °F 92 °F (1917)
Min Temperature 27 °F 29 °F 18 °F (1985)
Degree Days  
Heating Degree Days 26 16  
Month to date heating degree days 181 132  
Since 1 July heating degree days 487 509  
Cooling Degree Days 0 0  
Month to date cooling degree days 0 0  
Year to date cooling degree days 217 156  
Moisture  
Dew Point 17 °F    
Average Humidity 46    
Maximum Humidity 85    
Minimum Humidity 18    
Precipitation  
Precipitation 0.00 in 0.02 in 0.15 in (1952)
Month to date precipitation 0.03 0.17  
Year to date precipitation 12.26 9.83  
Sea Level Pressure  
Sea Level Pressure 30.13 in    
Wind  
Wind Speed 6 mph ()    
Max Wind Speed 16 mph    
Max Gust Speed 21 mph    
Visibility 10.0 miles    
Events      
T = Trace of Precipitation, MM = Missing Value Source: Averaged Metar Reports

Daily Weather History Graph

Daily Weather History Graph

Search for Another Location

Airport or City:

Astronomy

Oct. 09, 2019 Rise Set
Actual Time 7:07 AM PDT 6:30 PM PDT
Civil Twilight 6:39 AM PDT 6:58 PM PDT
Nautical Twilight 6:07 AM PDT 7:30 PM PDT
Astronomical Twilight 5:35 AM PDT 8:02 PM PDT
Moon 5:09 PM PDT (10/9) 2:54 AM PDT (10/9)
Length of Visible Light 12h 18m
Length of Day
11h 23m
Waxing Gibbous, 85% of the Moon is Illuminated
Oct 9
Waxing Gibbous
Oct 13
Full
Oct 21
Last Quarter
Oct 27
New
Nov 4
First Quarter

Hourly Weather History & Observations

Time (PDT) Temp. Windchill Dew Point Humidity Pressure Visibility Wind Dir Wind Speed Gust Speed Precip Events Conditions
12:55 AM 39.0 °F - 28.9 °F 67% 29.95 in 10.0 mi Calm Calm - N/A   Clear
1:55 AM 36.0 °F 33.3 °F 27.0 °F 70% 29.97 in 10.0 mi WSW 3.5 mph - N/A   Partly Cloudy
2:55 AM 35.1 °F 28.6 °F 27.0 °F 72% 29.98 in 10.0 mi West 8.1 mph - N/A   Clear
3:55 AM 34.0 °F 25.0 °F 27.0 °F 75% 29.99 in 10.0 mi NW 12.7 mph - N/A   Clear
5:55 AM 30.0 °F 22.4 °F 23.0 °F 75% 30.04 in 10.0 mi North 8.1 mph - N/A   Clear
6:55 AM 28.0 °F 24.2 °F 21.9 °F 78% 30.07 in 10.0 mi NNW 3.5 mph - N/A   Clear
7:55 AM 30.9 °F - 24.1 °F 76% 30.10 in 10.0 mi Calm Calm - N/A   Clear
8:55 AM 36.0 °F 29.0 °F 21.0 °F 55% 30.12 in 10.0 mi NNE 9.2 mph - N/A   Clear
9:55 AM 39.9 °F 31.8 °F 21.0 °F 47% 30.13 in 10.0 mi North 15.0 mph - N/A   Clear
10:55 AM 42.1 °F 35.7 °F 19.9 °F 41% 30.14 in 10.0 mi NNE 11.5 mph - N/A   Clear
11:55 AM 44.1 °F - 18.0 °F 35% 30.14 in 10.0 mi North - - N/A   Clear
12:55 PM 48.0 °F - 17.1 °F 29% 30.14 in 10.0 mi NE 11.5 mph - N/A   Clear
1:55 PM 48.9 °F - 8.1 °F 19% 30.13 in 10.0 mi NNE 9.2 mph - N/A   Clear
2:55 PM 50.0 °F - 9.0 °F 19% 30.13 in 10.0 mi North 11.5 mph - N/A   Clear
3:55 PM 48.9 °F - 8.1 °F 19% 30.15 in 10.0 mi NNE 8.1 mph - N/A   Clear
4:55 PM 48.9 °F - 9.0 °F 20% 30.16 in 10.0 mi NNE 8.1 mph - N/A   Clear
5:55 PM 45.0 °F 39.3 °F 9.0 °F 23% 30.18 in 10.0 mi NNE 11.5 mph - N/A   Clear
6:55 PM 39.9 °F 32.9 °F 10.9 °F 31% 30.23 in 10.0 mi NNE 11.5 mph - N/A   Clear
7:55 PM 37.0 °F 32.4 °F 15.1 °F 41% 30.25 in 10.0 mi NNE 5.8 mph - N/A   Clear
8:55 PM 34.0 °F 29.8 °F 15.1 °F 46% 30.26 in 10.0 mi NE 4.6 mph - N/A   Clear
9:55 PM 33.1 °F 30.0 °F 12.9 °F 43% 30.26 in 10.0 mi NE 3.5 mph - N/A   Clear
10:55 PM 32.0 °F 25.6 °F 12.0 °F 44% 30.28 in 10.0 mi NNE 6.9 mph - N/A   Clear
11:55 PM 36.0 °F 27.5 °F 12.9 °F 39% 30.27 in 10.0 mi ENE 12.7 mph 19.6 mph N/A   Clear